Location: Unspecified
(17.6330°N, 0.0000°E)
Time: 18:25:42
(UTC+00:00)

A-11 Canister half - Pass Details

Date: 21 June 2019
Orbit: 1514 x 1685 km, 47.2° (Epoch: 18 July)

Event Time Altitude Azimuth Distance (km) Brightness Sun altitude
Rises 16:06:23 0° 329° (NNW) 4,747 12.2 32.9°
Reaches altitude 10° 16:10:42 10° 346° (NNW) 3,734 11.5 31.9°
Maximum altitude 16:17:12 20° 30° (NNE) 2,970 10.6 30.4°
Drops below altitude 10° 16:23:34 10° 75° (ENE) 3,674 10.6 28.9°
Sets 16:27:43 0° 91° (E) 4,649 11.0 28.0°
